Time,TemperatureF,DewpointF,PressureIn,WindDirection,WindDirectionDegrees,WindSpeedMPH,WindSpeedGustMPH,Humidity,HourlyPrecipIn,Conditions,Clouds,dailyrainin,SolarRadiationWatts/m^2,SoftwareType,DateUTC
2013-03-25 00:02:00,-2.0,-8.0,-100.00,WNW,283,2.0,3.0,75,0.00,,,0.01,0.000000,,2013-03-25 06:02:00,
2013-03-25 00:33:00,-4.0,-10.0,-100.00,NNW,330,4.0,5.0,73,0.00,,,0.01,0.000000,,2013-03-25 06:33:00,
2013-03-25 00:42:00,-4.0,-10.0,-100.00,NNW,330,4.0,5.0,73,0.00,,,0.01,0.000000,,2013-03-25 06:42:00,
2013-03-25 00:52:00,-4.0,-10.0,-100.00,NNW,330,4.0,5.0,73,0.00,,,0.01,0.000000,,2013-03-25 06:52:00,
2013-03-25 01:02:00,-4.0,-10.0,-100.00,NNW,330,4.0,5.0,73,0.00,,,0.01,0.000000,,2013-03-25 07:02:00,
2013-03-25 01:32:00,-4.0,-11.0,-100.00,NNW,337,3.0,8.0,72,0.00,,,0.01,0.000000,,2013-03-25 07:32:00,
2013-03-25 01:42:00,-4.0,-11.0,-100.00,NNW,337,3.0,8.0,72,0.00,,,0.01,0.000000,,2013-03-25 07:42:00,
2013-03-25 01:53:00,-4.0,-11.0,-100.00,NNW,337,3.0,8.0,72,0.00,,,0.01,0.000000,,2013-03-25 07:53:00,
2013-03-25 02:02:00,-4.0,-11.0,-100.00,NNW,337,3.0,8.0,72,0.00,,,0.01,0.000000,,2013-03-25 08:02:00,
2013-03-25 02:32:00,-3.0,-11.0,-100.00,NNW,330,3.0,7.0,69,0.00,,,0.01,0.000000,,2013-03-25 08:32:00,
2013-03-25 02:43:00,-3.0,-11.0,-100.00,NNW,330,3.0,7.0,69,0.00,,,0.01,0.000000,,2013-03-25 08:43:00,
2013-03-25 02:52:00,-3.0,-11.0,-100.00,NNW,330,3.0,7.0,69,0.00,,,0.01,0.000000,,2013-03-25 08:52:00,
2013-03-25 03:02:00,-3.0,-11.0,-100.00,NNW,330,3.0,7.0,69,0.00,,,0.01,0.000000,,2013-03-25 09:02:00,
2013-03-25 03:33:00,-3.0,-12.0,-100.00,NNW,334,5.0,8.0,65,0.00,,,0.01,0.000000,,2013-03-25 09:33:00,
2013-03-25 03:43:00,-3.0,-12.0,-100.00,NNW,334,5.0,8.0,65,0.00,,,0.01,0.000000,,2013-03-25 09:43:00,
2013-03-25 03:52:00,-3.0,-12.0,-100.00,NNW,334,5.0,8.0,65,0.00,,,0.01,0.000000,,2013-03-25 09:52:00,
2013-03-25 04:03:00,-3.0,-12.0,-100.00,NNW,334,5.0,8.0,65,0.00,,,0.01,0.000000,,2013-03-25 10:03:00,
2013-03-25 04:33:00,-4.0,-12.0,-100.00,NW,306,4.0,10.0,66,0.00,,,0.01,0.000000,,2013-03-25 10:33:00,
2013-03-25 04:43:00,-4.0,-12.0,-100.00,NW,306,4.0,10.0,66,0.00,,,0.01,0.000000,,2013-03-25 10:43:00,
2013-03-25 04:54:00,-4.0,-12.0,-100.00,NW,306,4.0,10.0,66,0.00,,,0.01,0.000000,,2013-03-25 10:54:00,
2013-03-25 05:03:00,-4.0,-12.0,-100.00,NW,306,4.0,10.0,66,0.00,,,0.01,0.000000,,2013-03-25 11:03:00,
2013-03-25 05:32:00,-5.0,-13.0,-100.00,NW,321,3.0,8.0,67,0.00,,,0.01,0.000000,,2013-03-25 11:32:00,
2013-03-25 05:43:00,-5.0,-13.0,-100.00,NW,321,3.0,8.0,67,0.00,,,0.01,0.000000,,2013-03-25 11:43:00,
2013-03-25 05:53:00,-5.0,-13.0,-100.00,NW,321,3.0,8.0,67,0.00,,,0.01,0.000000,,2013-03-25 11:53:00,
2013-03-25 06:02:00,-5.0,-13.0,-100.00,NW,321,3.0,8.0,67,0.00,,,0.01,0.000000,,2013-03-25 12:02:00,
2013-03-25 06:33:00,-8.0,-16.0,-100.00,NNW,345,4.0,7.0,68,0.00,,,0.01,0.000000,,2013-03-25 12:33:00,
2013-03-25 06:43:00,-8.0,-16.0,-100.00,NNW,345,4.0,7.0,68,0.00,,,0.01,0.000000,,2013-03-25 12:43:00,
2013-03-25 06:53:00,-8.0,-16.0,-100.00,NNW,345,4.0,7.0,68,0.00,,,0.01,0.000000,,2013-03-25 12:53:00,
2013-03-25 07:02:00,-8.0,-16.0,-100.00,NNW,345,4.0,7.0,68,0.00,,,0.01,0.000000,,2013-03-25 13:02:00,
2013-03-25 07:32:00,-6.0,-14.0,-100.00,NNW,328,4.0,9.0,66,0.00,,,0.01,1.000000,,2013-03-25 13:32:00,
2013-03-25 07:43:00,-6.0,-14.0,-100.00,NNW,328,4.0,9.0,66,0.00,,,0.01,1.000000,,2013-03-25 13:43:00,
2013-03-25 07:52:00,-6.0,-14.0,-100.00,NNW,328,4.0,9.0,66,0.00,,,0.01,1.000000,,2013-03-25 13:52:00,
2013-03-25 08:03:00,-6.0,-14.0,-100.00,NNW,328,4.0,9.0,66,0.00,,,0.01,1.000000,,2013-03-25 14:03:00,
2013-03-25 08:33:00,-1.0,-11.0,-100.00,NW,322,3.0,9.0,63,0.00,,,0.01,22.000000,,2013-03-25 14:33:00,
2013-03-25 08:43:00,-1.0,-11.0,-100.00,NW,322,3.0,9.0,63,0.00,,,0.01,22.000000,,2013-03-25 14:43:00,
2013-03-25 08:53:00,-1.0,-11.0,-100.00,NW,322,3.0,9.0,63,0.00,,,0.01,22.000000,,2013-03-25 14:53:00,
2013-03-25 09:02:00,-1.0,-11.0,-100.00,NW,322,3.0,9.0,63,0.00,,,0.01,22.000000,,2013-03-25 15:02:00,
2013-03-25 09:33:00,9.0,-7.0,-100.00,North,6,5.0,9.0,47,0.00,,,0.01,265.000000,,2013-03-25 15:33:00,
2013-03-25 09:43:00,9.0,-7.0,-100.00,North,6,5.0,9.0,47,0.00,,,0.01,265.000000,,2013-03-25 15:43:00,
2013-03-25 09:53:00,9.0,-7.0,-100.00,North,6,5.0,9.0,47,0.00,,,0.01,265.000000,,2013-03-25 15:53:00,
2013-03-25 10:03:00,9.0,-7.0,-100.00,North,6,5.0,9.0,47,0.00,,,0.01,265.000000,,2013-03-25 16:03:00,
2013-03-25 10:33:00,17.0,-6.0,-100.00,NNE,20,5.0,12.0,35,0.00,,,0.01,610.000000,,2013-03-25 16:33:00,
2013-03-25 10:43:00,17.0,-6.0,-100.00,NNE,20,5.0,12.0,35,0.00,,,0.01,610.000000,,2013-03-25 16:43:00,
2013-03-25 10:53:00,17.0,-6.0,-100.00,NNE,20,5.0,12.0,35,0.00,,,0.01,610.000000,,2013-03-25 16:53:00,
2013-03-25 11:02:00,17.0,-6.0,-100.00,NNE,20,5.0,12.0,35,0.00,,,0.01,610.000000,,2013-03-25 17:02:00,
2013-03-25 11:33:00,20.0,-7.0,-100.00,North,5,6.0,14.0,29,0.00,,,0.01,836.000000,,2013-03-25 17:33:00,
2013-03-25 11:43:00,20.0,-7.0,-100.00,North,5,6.0,14.0,29,0.00,,,0.01,836.000000,,2013-03-25 17:43:00,
2013-03-25 11:53:00,20.0,-7.0,-100.00,North,5,6.0,14.0,29,0.00,,,0.01,836.000000,,2013-03-25 17:53:00,
2013-03-25 12:03:00,20.0,-7.0,-100.00,North,5,6.0,14.0,29,0.00,,,0.01,836.000000,,2013-03-25 18:03:00,
2013-03-25 12:33:00,24.0,-6.0,-100.00,NNE,16,6.0,14.0,26,0.04,,,0.05,981.000000,,2013-03-25 18:33:00,
2013-03-25 12:43:00,24.0,-6.0,-100.00,NNE,16,6.0,14.0,26,0.04,,,0.05,981.000000,,2013-03-25 18:43:00,
2013-03-25 12:53:00,24.0,-6.0,-100.00,NNE,16,6.0,14.0,26,0.04,,,0.05,981.000000,,2013-03-25 18:53:00,
2013-03-25 13:03:00,24.0,-6.0,-100.00,NNE,16,6.0,14.0,26,0.04,,,0.05,981.000000,,2013-03-25 19:03:00,
2013-03-25 13:33:00,25.0,-8.0,-100.00,NNE,18,8.0,15.0,23,0.00,,,0.05,1062.000000,,2013-03-25 19:33:00,
2013-03-25 13:43:00,25.0,-8.0,-100.00,NNE,18,8.0,15.0,23,0.00,,,0.05,1062.000000,,2013-03-25 19:43:00,
2013-03-25 13:53:00,25.0,-8.0,-100.00,NNE,18,8.0,15.0,23,0.00,,,0.05,1062.000000,,2013-03-25 19:53:00,
2013-03-25 14:02:00,25.0,-8.0,-100.00,NNE,18,8.0,15.0,23,0.00,,,0.05,1062.000000,,2013-03-25 20:02:00,
2013-03-25 14:32:00,28.0,-10.0,-100.00,NNE,22,8.0,16.0,18,0.00,,,0.04,1069.000000,,2013-03-25 20:32:00,
2013-03-25 14:42:00,28.0,-10.0,-100.00,NNE,22,8.0,16.0,18,0.00,,,0.04,1069.000000,,2013-03-25 20:42:00,
2013-03-25 14:52:00,28.0,-10.0,-100.00,NNE,22,8.0,16.0,18,0.00,,,0.04,1069.000000,,2013-03-25 20:52:00,
2013-03-25 15:02:00,28.0,-10.0,-100.00,NNE,22,8.0,16.0,18,0.00,,,0.04,1069.000000,,2013-03-25 21:02:00,
2013-03-25 15:33:00,30.0,-8.0,-100.00,NNE,15,7.0,16.0,18,0.00,,,0.04,1001.000000,,2013-03-25 21:33:00,
2013-03-25 15:43:00,30.0,-8.0,-100.00,NNE,15,7.0,16.0,18,0.00,,,0.04,1001.000000,,2013-03-25 21:43:00,
2013-03-25 15:52:00,30.0,-8.0,-100.00,NNE,15,7.0,16.0,18,0.00,,,0.04,1001.000000,,2013-03-25 21:52:00,
2013-03-25 16:03:00,30.0,-8.0,-100.00,NNE,15,7.0,16.0,18,0.00,,,0.04,1001.000000,,2013-03-25 22:03:00,
2013-03-25 16:33:00,29.0,-11.0,-100.00,North,8,8.0,16.0,16,0.00,,,0.04,861.000000,,2013-03-25 22:33:00,
2013-03-25 16:43:00,29.0,-11.0,-100.00,North,8,8.0,16.0,16,0.00,,,0.04,861.000000,,2013-03-25 22:43:00,
2013-03-25 16:52:00,29.0,-11.0,-100.00,North,8,8.0,16.0,16,0.00,,,0.04,861.000000,,2013-03-25 22:52:00,
2013-03-25 17:03:00,29.0,-11.0,-100.00,North,8,8.0,16.0,16,0.00,,,0.04,861.000000,,2013-03-25 23:03:00,
2013-03-25 17:33:00,30.0,-8.0,-100.00,NW,308,5.0,14.0,18,0.00,,,0.04,667.000000,,2013-03-25 23:33:00,
2013-03-25 17:43:00,30.0,-8.0,-100.00,NW,308,5.0,14.0,18,0.00,,,0.04,667.000000,,2013-03-25 23:43:00,
2013-03-25 17:53:00,30.0,-8.0,-100.00,NW,308,5.0,14.0,18,0.00,,,0.04,667.000000,,2013-03-25 23:53:00,
2013-03-25 18:02:00,30.0,-8.0,-100.00,NW,308,5.0,14.0,18,0.00,,,0.04,667.000000,,2013-03-26 00:02:00,
2013-03-25 19:33:00,20.0,-13.0,-100.00,North,11,3.0,8.0,22,-99.99,,,0.04,74.000000,,2013-03-26 01:33:00,
2013-03-25 19:42:00,20.0,-13.0,-100.00,North,11,3.0,8.0,22,-99.99,,,0.04,74.000000,,2013-03-26 01:42:00,
2013-03-25 19:52:00,20.0,-13.0,-100.00,North,11,3.0,8.0,22,-99.99,,,0.04,74.000000,,2013-03-26 01:52:00,
2013-03-25 20:02:00,20.0,-13.0,-100.00,North,11,3.0,8.0,22,-99.99,,,0.04,74.000000,,2013-03-26 02:02:00,
2013-03-25 20:32:00,15.0,-11.0,-100.00,NW,305,3.0,7.0,30,0.00,,,0.04,3.000000,,2013-03-26 02:32:00,
2013-03-25 20:43:00,15.0,-11.0,-100.00,NW,305,3.0,7.0,30,0.00,,,0.04,3.000000,,2013-03-26 02:43:00,
2013-03-25 20:52:00,15.0,-11.0,-100.00,NW,305,3.0,7.0,30,0.00,,,0.04,3.000000,,2013-03-26 02:52:00,
2013-03-25 21:02:00,15.0,-11.0,-100.00,NW,305,3.0,7.0,30,0.00,,,0.04,3.000000,,2013-03-26 03:02:00,
2013-03-25 21:34:00,12.0,-8.0,-100.00,NNW,327,2.0,6.0,40,0.00,,,0.04,0.000000,,2013-03-26 03:34:00,
2013-03-25 21:43:00,12.0,-8.0,-100.00,NNW,327,2.0,6.0,40,0.00,,,0.04,0.000000,,2013-03-26 03:43:00,
2013-03-25 21:53:00,12.0,-8.0,-100.00,NNW,327,2.0,6.0,40,0.00,,,0.04,0.000000,,2013-03-26 03:53:00,
2013-03-25 22:03:00,12.0,-8.0,-100.00,NNW,327,2.0,6.0,40,0.00,,,0.04,0.000000,,2013-03-26 04:03:00,
2013-03-25 22:33:00,9.0,-6.0,-100.00,NW,319,4.0,7.0,50,0.00,,,0.04,0.000000,,2013-03-26 04:33:00,
2013-03-25 22:43:00,9.0,-6.0,-100.00,NW,319,4.0,7.0,50,0.00,,,0.04,0.000000,,2013-03-26 04:43:00,
2013-03-25 22:53:00,9.0,-6.0,-100.00,NW,319,4.0,7.0,50,0.00,,,0.04,0.000000,,2013-03-26 04:53:00,
2013-03-25 23:02:00,9.0,-6.0,-100.00,NW,319,4.0,7.0,50,0.00,,,0.04,0.000000,,2013-03-26 05:02:00,
2013-03-25 23:32:00,6.0,-7.0,-100.00,NW,322,2.0,8.0,54,0.00,,,0.04,0.000000,,2013-03-26 05:32:00,
2013-03-25 23:42:00,6.0,-7.0,-100.00,NW,322,2.0,8.0,54,0.00,,,0.04,0.000000,,2013-03-26 05:42:00,
2013-03-25 23:52:00,6.0,-7.0,-100.00,NW,322,2.0,8.0,54,0.00,,,0.04,0.000000,,2013-03-26 05:52:00,